Find Starlink 5911

NORAD ID: 55950 Int'l Des: 2023-037 Owner: SPXS Country: US Constellation: starlink operational
LEOCIRCULAR

Live Position

Loading 3D Globe...

About Starlink 5911

Description loading...

Upcoming Passes

Passes for default location (London). Set your location on the main map for personalized predictions.

Altitude History

Loading altitude history...

Two-Line Element Set

1 55950U 23037AN 26104.62422231 .00000361 00000-0 38068-4 0 9993
2 55950 69.9999 173.9417 0003336 270.1852 89.8925 14.98332582169854
Epoch: Apr 14, 2026 • Age: 13 hours

Current Status

Altitude 577.9 km
Velocity 7.57 km/s
Sub-Earth Point -18.47°S, 93.34°W
Launch Date Mar 17, 2023
Age 3 years
Type internet

Technical Details

Classification Payload
Mass 305.00 kg
Dry Mass 290.00 kg
Total Mass 305.00 kg
Length 0.20 m
Diameter 2.80 m
Span 9.00 m
Shape Box + pan
Manufacturer SPXS
Bus Type Starlink
Phase Status In Orbit
Owner/State SPXS/US

Most Searched